Flag for Canada Weather past 2 weeks in Langley, British Columbia, Canada

Now
59 °F

Cool.


Feels Like: 59 °F
Forecast: 55 / 77 °F
Wind: 1 mph from Southeast

Location: P. Meadows Coastal Station

Current Time: May 28, 2015 at 1:18:23 AM

Latest Report: May 28, 2015 at 12:00 AM


Visibility: N/A

Pressure: 30.03 "Hg

Humidity: 85%

Dew point: 54 °F

Location of LangleyLocation

Historic Weather in Langley — Graph

°F

Langley temperature yesterday

Maximum temperature yesterday: 74 °F (at 5:00 PM)
Minimum temperature yesterday: 59 °F (at 5:00 AM)
Average temperature yesterday: 65 °F

Past Weeks' High & Low Weather Summary

 TemperatureHumidityPressure
High79 °F (May 21, 4:00 PM)98% (May 22, 5:00 AM)30.18 "Hg (May 22, 5:00 AM)
Low51 °F (May 15, 2:00 AM)37% (May 18, 6:00 PM)29.77 "Hg (May 21, 5:00 PM)
Average61 °F74%29.98 "Hg
* Reported Midnight between May 12 and May 13 — Midnight between May 27 and May 28, Langley, Weather by CustomWeather, © 2015

Note: Actual official high and low records may vary slightly from our data, if they occured in-between our weather recording intervals... More about our weather records

Advertising

Langley weather history for previous 24 hours

 ConditionsComfort  
Time TempWeatherWind HumidityBarometerVisibility
12:00 AM
Thu, May 28
59 °FCool.1 mph85%30.03 "HgN/A
11:00 PM
Wed, May 27
60 °FCool.No wind76%30.02 "HgN/A
10:00 PM62 °FCool.No wind71%30.02 "HgN/A
9:00 PM67 °FMild.2 mph61%30.01 "HgN/A
8:00 PM70 °FMild.3 mph58%30.00 "HgN/A
7:00 PM73 °FMild.3 mph56%29.98 "HgN/A
6:00 PM74 °FMild.3 mph52%29.99 "HgN/A
5:00 PM74 °FMild.5 mph53%30.00 "HgN/A
4:00 PM74 °FMild.7 mph52%30.01 "HgN/A
3:00 PM71 °FMild.5 mph52%30.03 "HgN/A
2:00 PM69 °FMild.2 mph63%30.05 "HgN/A
1:00 PM67 °FMild.1 mph62%30.06 "HgN/A
12:00 PM65 °FMild.2 mph69%30.07 "HgN/A
11:00 AM63 °FMild.1 mph74%30.07 "HgN/A
10:00 AM61 °FCool.1 mph77%30.07 "HgN/A
9:00 AM60 °FCool.1 mph80%30.07 "HgN/A
8:00 AM60 °FCool.2 mph80%30.07 "HgN/A
7:00 AM60 °FCool.1 mph78%30.06 "HgN/A
6:00 AM59 °FCool.1 mph81%30.05 "HgN/A
5:00 AM59 °FCool.1 mph83%30.04 "HgN/A
4:00 AM60 °FCool.1 mph81%30.04 "HgN/A
3:00 AM61 °FCool.1 mph84%30.03 "HgN/A
2:00 AM62 °FCool.2 mph77%30.03 "HgN/A
1:00 AM62 °FCool.2 mph79%30.03 "HgN/A
Weather by CustomWeather, © 2015

See weather overviewHow to use our weather pages